SCP
1 1 1 2 2 1 1 1 1 1 0 1 1 0 0 0 1 1 1 1 1 1 1 1 1 1 1 1 1 1 1 1 1 1 1 1 1 1 1 1 1 1 1
1 1 2 2 2 2 1 1 1 1 1 1 1 1 1 1 1 1 1 1 1 2 1 1 1 1 1 1 1 1 1 1 1 1 1 1 1 1 1 1 1 1 1
2 2 2 2 2 2 2 1 1 1 1 1 1 1 1 1 1 1 1 1 2 2 2 2 1 2 2 1 1 1 1 1 1 1 1 1 1 1 1 1 1 1 1
2 2 2 1 1 1 2 2 2 1 1 1 1 1 1 1 1 1 1 1 1 1 1 1 2 2 2 2 2 2 1 1 1 1 1 1 1 1 1 1 1 1 1
1 1 1 1 1 1 2 2 2 2 1 1 1 1 1 1 1 1 1 1 1 1 1 1 2 2 2 2 1 1 1 1 1 1 1 1 1 1 1 1 1 1 1
1 1 1 1 1 1 1 2 2 2 2 1 1 1 0 0 0 1 1 1 1 1 1 1 1 1 1 1 1 1 1 1 1 1 1 1 1 1 1 1 1 1 1
1 1 1 1 1 1 1 1 2 2 2 1 1 0 0 0 0 0 0 1 0 0 0 0 0 1 1 1 1 1 1 1 1 1 1 0 1 1 1 1 1 0 0
1 1 1 1 1 1 1 1 1 2 1 1 1 0 0 0 0 0 0 0 0 0 0 0 0 0 0 0 0 0 0 0 0 0 0 0 0 0 0 1 0 0 0
1 1 2 2 1 1 1 1 1 1 1 1 0 0 0 0 0 0 0 0 0 0 0 0 0 0 0 0 0 0 0 0 0 0 0 0 0 0 0 0 0 0 0
1 2 2 2 1 1 1 1 1 1 1 0 0 0 0 0 0 0 0 0 0 0 0 0 0 0 0 0 0 0 0 0 0 0 0 0 0 0 0 0 0 0 0
1 2 2 2 1 1 1 1 1 0 0 0 0 0 0 0 0 0 0 0 0 0 0 0 0 0 0 0 0 0 0 0 0 0 0 0 0 0 0 0 0 0 0
1 1 1 1 1 1 1 0 0 0 0 0 0 0 0 0 0 0 0 0 0 0 0 0 0 0 0 0 0 0 0 0 0 0 0 0 0 0 0 0 0 0 0
0 0 0 0 0 0 0 0 0 0 0 0 0 0 0 0 0 0 0 0 0 0 0 0 0 0 0 0 0 0 0 0 0 0 0 0 0 0 0 0 0 0 0
0 0 0 0 0 0 0 0 0 0 0 0 0 0 0 0 0 0 0 0 0 0 0 0 0 0 0 0 0 0 0 0 0 0 0 0 0 0 0 0 0 0 0
0 0 0 0 0 0 0 0 0 0 0 0 0 0 0 0 0 0 0 0 0 0 0 0 0 0 0 0 0 0 0 0 0 0 0 0 0 0 0 0 0 0 0
0 0 0 0 0 0 0 0 0 0 0 0 0 0 0 0 0 0 0 0 0 0 0 0 0 0 0 0 0 0 0 0 0 0 0 0 0 0 0 0 0 0 0
0 0 0 0 0 0 0 0 0 0 0 0 0 0 0 0 0 0 0 0 0 0 0 0 0 0 0 0 0 0 0 0 0 0 0 0 0 0 0 0 0 0 0
0 0 0 0 0 0 0 0 0 0 0 0 0 0 0 0 0 0 0 0 0 0 0 0 0 0 0 0 0 0 0 0 0 0 0 0 0 0 0 0 0 0 0
0 0 0 0 0 0 0 0 0 0 0 0 0 0 0 0 0 0 0 0 0 0 0 0 0 0 0 0 0 0 0 0 0 0 0 0 0 0 0 0 0 0 0
0 0 0 0 0 0 0 0 0 0 0 0 0 0 0 0 0 0 0 0 0 0 0 0 0 0 0 0 0 0 0 0 0 0 0 0 0 0 0 0 0 0 0
0 0 0 0 0 0 0 0 0 0 0 0 0 0 0 0 0 0 0 0 0 0 0 0 0 0 0 0 0 0 0 0 0 0 0 0 0 0 0 0 0 0 0
0 0 0 0 0 0 0 0 0 0 0 0 0 0 0 0 0 0 0 0 0 0 0 0 0 0 0 0 0 0 0 0 0 0 0 0 0 0 0 0 0 0 0
0 0 0 0 0 0 0 0 0 0 0 0 0 0 0 0 0 0 0 0 0 0 0 0 0 0 0 0 0 0 0 0 0 0 0 0 0 0 0 0 0 0 0
0 0 0 0 0 0 0 0 0 0 0 0 0 0 0 0 0 0 0 0 0 0 0 0 0 0 0 0 0 0 0 0 0 0 0 0 0 0 0 0 0 0 0
0 0 0 0 0 0 0 0 0 0 0 0 0 0 0 0 0 0 0 0 0 0 0 0 0 0 0 0 0 0 0 0 0 0 0 0 0 0 0 0 0 0 0
0 0 0 0 0 0 0 0 0 0 0 0 0 0 0 0 0 0 0 0 0 0 0 0 0 0 0 0 0 0 0 0 0 0 0 0 0 0 0 0 0 0 0
Wind_Speed
4 4 3 4 4 3 3 3 3 4 4 4 3 4 4 4 3 3 3 8 8 7 7 7 7 7 6 5 5 4 4 5 5 5 5 5 4 4 4 3 3 3 3
4 4 4 4 4 4 4 3 4 4 3 3 3 3 4 4 4 4 4 5 8 8 8 8 8 8 7 6 6 5 4 4 4 4 4 3 4 3 3 3 3 2 1
4 4 4 5 4 4 4 3 3 2 3 3 4 4 4 4 5 5 5 4 4 8 11 10 10 9 8 7 7 6 6 6 5 4 3 3 3 3 3 3 3 2 2
4 4 4 4 4 4 4 4 3 3 3 3 3 3 4 4 6 5 5 5 4 4 7 11 12 11 10 9 8 8 8 8 8 8 7 7 6 6 5 4 4 3 4
3 3 3 3 4 3 3 4 4 4 5 5 4 4 4 4 5 6 6 6 5 5 4 9 13 13 12 11 10 10 11 10 10 10 10 10 9 9 8 7 7 6 5
2 2 3 3 3 3 3 3 4 4 5 6 7 6 5 5 5 5 5 5 5 6 6 6 6 9 14 13 13 12 12 11 11 11 11 10 10 10 10 10 9 9 8
1 1 2 3 3 3 4 5 5 6 5 6 6 6 6 6 6 4 4 5 6 6 6 6 5 5 6 13 13 13 12 12 12 12 11 11 10 10 9 9 9 9 9
1 1 2 3 3 3 4 5 5 4 3 4 5 5 4 3 4 4 3 4 5 5 6 6 6 6 5 4 8 13 12 12 12 11 11 10 10 9 8 8 8 7 7
3 2 2 2 2 3 3 4 5 5 4 2 3 5 6 5 3 2 3 3 4 4 4 4 5 5 5 4 4 9 11 11 11 11 10 10 9 8 8 7 6 6 5
5 5 4 4 3 2 3 3 3 4 5 4 2 2 3 6 6 4 2 2 3 4 4 4 5 4 4 3 5 9 10 9 9 9 8 8 8 8 8 7 6 6 6
7 7 6 6 5 4 4 4 4 4 3 4 3 3 4 4 4 5 4 2 2 2 2 3 3 3 3 3 2 5 7 7 6 6 6 6 7 7 7 7 7 7 7
6 8 8 7 7 6 5 5 5 6 5 6 5 3 3 3 3 4 5 5 3 2 2 2 2 2 2 2 2 5 4 3 3 3 4 5 5 6 6 7 7 7 8
5 7 7 7 7 7 7 7 8 8 7 8 7 5 4 3 3 4 6 5 3 2 2 2 1 2 2 1 1 4 3 2 1 1 2 3 4 5 6 6 7 7 8
5 6 8 8 8 8 8 8 8 8 8 8 9 7 5 4 4 4 5 6 5 2 2 1 0 1 1 2 3 4 2 4 4 3 3 3 3 4 4 5 5 6 7
6 7 8 9 8 8 8 8 7 7 8 8 7 7 6 5 5 4 4 5 6 5 2 1 0 1 2 2 4 2 3 6 7 7 6 4 4 3 3 4 4 5 6
7 8 8 8 8 8 8 8 7 7 9 7 6 8 7 5 5 5 4 3 3 5 4 2 2 2 2 2 4 3 4 8 9 9 8 6 5 4 3 3 3 4 5
7 7 7 7 8 7 7 7 8 8 9 8 8 9 8 7 6 5 4 4 4 4 5 1 0 0 0 1 2 2 3 3 4 8 9 8 6 5 4 3 2 3 4
7 7 7 8 8 7 7 7 8 9 9 9 8 8 8 7 8 6 6 6 4 4 5 3 1 1 1 2 2 2 2 2 2 5 7 7 7 6 5 4 3 3 3
7 8 8 8 8 7 7 7 8 8 8 7 7 8 7 8 8 6 7 6 4 4 3 3 1 1 2 2 2 3 3 2 2 1 4 6 7 8 6 5 5 4 4
8 8 8 8 8 7 7 6 7 7 7 7 6 7 7 7 6 6 6 5 5 5 4 4 3 2 2 2 3 3 3 3 3 2 1 2 4 6 7 7 6 6 5
9 8 8 8 8 7 6 6 6 7 6 6 6 6 6 7 8 5 4 4 5 4 4 4 3 3 3 3 2 2 2 3 3 2 2 2 1 2 3 5 7 8 7
8 8 8 8 8 6 8 10 7 6 5 6 6 5 6 7 8 8 6 5 5 4 4 3 2 1 1 1 1 1 2 3 3 3 1 3 1 2 3 3 7 9 8
7 7 7 7 7 7 10 11 10 6 5 5 5 4 5 6 7 5 6 7 5 4 4 4 2 2 2 2 1 1 1 1 3 3 1 3 2 2 3 3 7 9 8
5 5 5 5 6 7 10 10 10 7 6 6 5 5 5 5 6 5 6 6 5 3 1 2 3 4 4 3 3 2 2 2 3 3 1 1 3 3 3 3 5 7 8
5 4 4 5 6 6 9 9 8 5 5 5 4 4 4 5 7 8 6 5 5 4 4 3 4 5 6 6 4 1 1 2 2 3 1 0 2 3 3 3 4 6 8
4 4 4 4 5 5 9 9 8 4 5 3 3 4 4 4 6 6 4 4 4 4 5 6 6 5 4 3 4 4 3 2 1 3 3 0 2 1 3 3 3 3 3
Wind_Direction
180 177 181 179 182 178 181 190 195 203 216 220 210 186 173 163 156 146 143 151 148 144 142 143 146 143 140 139 143 148 157 164 166 168 174 176 175 177 177 177 172 173 183
182 176 179 183 189 189 187 187 194 198 200 186 173 155 146 140 136 128 118 126 125 124 122 126 123 119 117 116 115 116 119 126 134 141 150 158 161 158 155 148 142 143 150
184 188 186 189 198 194 184 180 183 181 172 147 136 133 129 128 128 120 113 106 107 108 110 108 106 104 103 103 102 103 97 93 94 101 114 125 126 122 125 120 114 106 99
186 188 193 198 193 188 179 177 170 158 149 128 112 107 110 116 115 113 109 104 95 95 97 99 96 93 91 89 91 92 90 85 81 80 82 83 82 81 85 83 80 81 76
181 177 190 195 180 175 178 179 162 156 141 127 112 92 84 92 100 107 103 99 94 90 83 88 88 87 84 82 82 86 87 84 81 77 75 76 74 71 69 66 63 61 61
176 180 180 185 173 162 168 162 159 156 141 131 113 90 73 73 80 90 100 98 96 93 85 78 71 75 78 77 76 77 79 81 80 77 75 73 72 71 69 67 63 59 55
140 167 174 167 168 167 166 163 153 143 138 128 112 99 70 61 68 70 83 94 94 92 88 82 75 68 69 71 72 73 74 75 75 74 73 72 70 69 68 67 64 58 51
77 165 148 159 163 157 155 155 148 142 148 151 136 130 124 86 58 56 72 94 95 94 94 93 86 79 71 59 75 76 72 73 74 73 71 67 64 61 60 59 56 52 47
52 58 91 124 144 151 154 160 158 153 158 145 141 148 149 155 132 56 50 76 94 96 96 98 95 89 83 67 63 72 76 73 72 71 70 66 61 55 52 47 43 38 36
50 54 62 72 87 110 132 147 149 149 153 154 125 88 121 137 144 136 77 56 82 93 102 109 103 95 93 82 81 85 80 72 70 68 66 61 56 50 42 34 28 22 14
49 52 56 62 65 73 88 96 102 110 125 138 136 120 98 91 103 131 145 142 83 67 85 101 105 107 103 97 90 98 90 81 73 67 60 52 45 38 30 24 19 13 7
50 50 56 60 62 62 68 76 83 89 90 95 92 93 116 125 134 125 135 140 127 96 69 84 114 129 137 138 151 128 118 103 78 59 47 38 31 25 19 12 9 5 2
59 50 55 58 61 62 64 67 73 75 81 87 87 84 81 86 116 119 127 130 119 98 77 59 112 160 163 161 187 176 179 179 199 332 358 7 9 9 9 10 7 2 359
70 64 64 63 61 63 67 69 71 70 72 77 78 77 76 65 78 110 129 135 123 87 73 97 12 200 185 194 231 221 231 235 240 254 271 295 325 344 353 358 359 358 358
77 71 70 69 64 64 66 71 74 74 76 73 71 71 72 64 65 74 101 131 135 133 125 212 203 244 214 218 240 231 238 247 245 246 253 262 278 300 319 334 346 352 355
74 75 74 71 68 65 65 69 71 69 74 69 69 68 63 60 63 64 83 90 105 128 132 193 210 220 216 227 233 234 248 257 249 243 244 247 252 263 279 300 326 341 349
73 73 73 71 68 65 64 71 73 71 72 68 66 69 63 59 62 56 65 77 83 103 115 103 3 316 191 264 288 276 260 252 255 243 236 235 240 243 252 266 291 318 337
72 72 71 67 65 64 63 71 79 74 75 73 68 68 62 65 58 54 62 68 73 85 116 115 31 9 308 277 293 307 309 284 262 247 230 226 232 235 237 245 260 284 310
70 67 67 66 63 61 64 69 76 76 74 74 74 74 68 70 62 57 60 62 62 70 85 105 75 20 1 358 6 350 351 345 313 269 224 230 235 233 230 233 247 262 277
74 71 69 66 63 61 61 67 76 77 74 71 72 72 69 73 74 68 65 62 70 69 70 80 68 34 15 354 35 15 355 340 327 338 322 263 247 236 233 230 240 251 261
79 76 73 64 57 55 55 70 75 80 78 72 65 63 67 72 72 70 79 77 80 78 76 76 65 43 17 16 3 337 349 327 320 333 333 306 284 261 252 242 241 248 254
75 73 70 68 60 54 61 69 79 77 80 81 75 62 57 47 46 50 66 92 108 105 103 94 82 79 324 302 314 344 2 8 323 311 345 305 293 268 263 240 241 243 250
82 78 73 72 65 49 58 65 75 83 82 86 88 72 60 42 39 40 46 58 61 88 127 137 140 203 229 241 257 336 329 271 259 277 357 312 318 292 277 263 245 241 245
90 87 80 72 64 44 52 64 76 77 77 78 85 90 80 45 35 53 58 51 40 27 105 175 205 230 233 226 205 216 243 289 295 295 145 296 309 298 299 295 269 248 248
90 88 87 79 68 38 44 67 82 79 78 71 73 78 81 62 46 61 63 52 30 1 359 342 267 263 260 247 208 165 8 41 344 308 317 189 292 309 309 297 282 265 259
101 97 82 73 73 52 48 67 86 87 86 77 57 48 53 62 54 60 66 57 25 337 337 341 344 343 328 307 205 186 182 166 232 287 281 220 289 334 324 299 289 285 279